Content
SEND FEEDBACK

Daily
Averages
Monthly
Summary
United States of America

PITTSFIELD, PENNSYLVANIA


Home > North America > United States > Pennsylvania
Elevation: 1300 feet     Latitude: 41 49N     Longitude: 079 27W

WEATHER
 
SELECT A DAY
Number of Records: 344,802;   Date Range: 1/1/95 - 9/22/14
 
SHARE

PRINT THIS DATA

[ ← Previous Day ]
WEATHER ALMANAC - JANUARY 31, 2013
[ Next Day → ]
[ °C ]   °F
Weather ElementAverageHighLow
Temperature22.6 °F37.4 °F (12:35 am) (6:35 am)
Dewpoint17.6 °F33.8 °F (12:35 am) (7:00 pm)
Humidity81 %93 % (2:35 am)68 % (1:55 pm)
Barometer29.47 in29.69 in (10:15 pm)29.16 in (12:55 am)
Wind Speed21.2 mph32.2 mph (4:35 am)
Wind Gust46 mph (3:55 am)
Weather ElementAverage
Visibility2.6 mi
Wind DirectionWSW (256.9 °)

Weather ElementTotal
Precipitation0.14 in
Heating Degree Days46.3 (Base 65)
Averaged from 67 records on January 31, 2013
WEATHER CONDITIONS BREAKOUT
WIND DIRECTION BREAKOUT
WEATHER BY HOUR - JANUARY 31, 2013
[ °C ]   °F
Local TimeTemperatureDewpointHumidityBarometerVisibilityWind DirectionWind SpeedGust SpeedPrecipitationEventsConditions
12:35 AM37.4 °F33.8 °F87 %29.17 in10.0 miWNW (290°)21.9 mph33.4 mph0.05 inOvercast
12:55 AM35.6 °F32.0 °F87 %29.16 in9.0 miWest (270°)16.1 mph27.6 mph0.06 inOvercast
1:15 AM35.6 °F30.2 °F81 %29.18 in8.0 miWSW (250°)25.3 mph32.2 mph0.01 inOvercast
1:35 AM33.8 °F30.2 °F87 %29.18 in6.0 miWest (260°)21.9 mph32.2 mph0.01 inOvercast
1:55 AM33.8 °F30.2 °F87 %29.16 in10.0 miWSW (250°)17.3 mph26.5 mph0.01 inOvercast
2:15 AM33.8 °F30.2 °F87 %29.17 in3.0 miWest (260°)13.8 mphOvercast
2:35 AM32.0 °F30.2 °F93 %29.20 in1.8 miWSW (240°)21.9 mph26.5 mphOvercast
2:55 AM32.0 °F30.2 °F93 %29.20 in1.0 miWSW (250°)23.0 mph28.8 mphOvercast
3:15 AM32.0 °F28.4 °F87 %29.19 in2.0 miWest (270°)13.8 mph28.8 mphOvercast
3:35 AM30.2 °F28.4 °F93 %29.21 in1.5 miWest (280°)29.9 mph40.3 mphOvercast
3:55 AM30.2 °F24.8 °F80 %29.23 in8.0 miWest (260°)24.2 mph46.0 mphOvercast
4:15 AM28.4 °F23.0 °F80 %29.24 in10.0 miWest (260°)24.2 mph39.1 mphOvercast
4:35 AM28.4 °F21.2 °F74 %29.26 in10.0 miWest (260°)32.2 mph42.6 mphOvercast
4:55 AM28.4 °F19.4 °F69 %29.28 in5.0 miWest (270°)31.1 mph43.7 mphOvercast
5:15 AM26.6 °F19.4 °F74 %29.29 in4.0 miWest (270°)31.1 mph46.0 mphOvercast
5:35 AM26.6 °F17.6 °F69 %29.30 in8.0 miWest (260°)26.5 mph40.3 mphOvercast
5:55 AM26.6 °F17.6 °F69 %29.32 in9.0 miWest (270°)32.2 mph41.4 mphOvercast
6:15 AM26.6 °F17.6 °F69 %29.32 in10.0 miWest (270°)19.6 mph41.4 mphOvercast
6:35 AM0.0 °F0.0 °F29.33 in10.0 miWest (270°)32.2 mph40.3 mphOvercast
7:15 AM26.6 °F17.6 °F69 %29.36 in3.0 miWest (270°)23.0 mph38.0 mphOvercast
7:35 AM24.8 °F19.4 °F80 %29.37 in0.5 miWest (260°)16.1 mph23.0 mphOvercast
7:55 AM24.8 °F19.4 °F80 %29.38 in0.5 miWest (260°)25.3 mph35.7 mphOvercast
8:15 AM24.8 °F19.4 °F80 %29.40 in0.2 miWest (260°)17.3 mph36.8 mphOvercast
8:35 AM24.8 °F19.4 °F80 %29.41 in0.5 miWest (270°)31.1 mph39.1 mphOvercast
8:55 AM23.0 °F17.6 °F80 %29.42 in0.8 miWest (260°)27.6 mph39.1 mphOvercast
9:15 AM24.8 °F17.6 °F74 %29.43 in0.5 miWest (260°)25.3 mph40.3 mphOvercast
9:35 AM23.0 °F17.6 °F80 %29.45 in0.5 miWest (260°)24.2 mph32.2 mphOvercast
9:55 AM21.2 °F17.6 °F86 %29.46 in0.5 miWSW (250°)23.0 mph28.8 mphOvercast
10:15 AM21.2 °F15.8 °F80 %29.46 in0.5 miWSW (250°)20.7 mph32.2 mphOvercast
10:35 AM21.2 °F17.6 °F86 %29.47 in0.8 miWest (260°)26.5 mph34.5 mphOvercast
10:55 AM21.2 °F17.6 °F86 %29.47 in0.5 miWest (260°)25.3 mph33.4 mphOvercast
11:15 AM21.2 °F17.6 °F86 %29.49 in0.2 miWSW (250°)25.3 mph33.4 mphOvercast
11:35 AM21.2 °F15.8 °F80 %29.49 in0.2 miWSW (250°)26.5 mph41.4 mphOvercast
11:55 AM21.2 °F17.6 °F86 %29.50 in0.5 miWest (260°)20.7 mph28.8 mphOvercast
12:15 PM21.2 °F15.8 °F80 %29.51 in0.2 miWSW (250°)24.2 mph29.9 mphOvercast
12:35 PM21.2 °F15.8 °F80 %29.52 in0.5 miWest (270°)18.4 mph29.9 mphOvercast
12:55 PM21.2 °F17.6 °F86 %29.52 in0.5 miWSW (250°)19.6 mph26.5 mphOvercast
1:15 PM21.2 °F15.8 °F80 %29.52 in0.8 miWest (260°)20.7 mph31.1 mphOvercast
1:35 PM21.2 °F15.8 °F80 %29.53 in0.5 miWest (260°)26.5 mph35.7 mphOvercast
1:55 PM21.2 °F12.2 °F68 %29.53 in0.5 miWest (260°)28.8 mph38.0 mphOvercast
2:15 PM21.2 °F15.8 °F80 %29.54 in0.8 miWSW (240°)20.7 mph40.3 mphOvercast
2:35 PM19.4 °F15.8 °F86 %29.55 in0.8 miWSW (250°)20.7 mph27.6 mphOvercast
2:55 PM19.4 °F12.2 °F74 %29.56 in0.8 miWSW (240°)20.7 mph33.4 mphOvercast
3:15 PM19.4 °F14.0 °F80 %29.57 in0.5 miWSW (250°)21.9 mph33.4 mphOvercast
3:35 PM19.4 °F15.8 °F86 %29.58 in0.5 miWSW (240°)21.9 mph29.9 mphOvercast
3:55 PM19.4 °F14.0 °F80 %29.59 in0.5 miWSW (250°)24.2 mph31.1 mphOvercast
4:15 PM19.4 °F10.4 °F68 %29.59 in0.8 miWSW (250°)24.2 mph28.8 mphOvercast
4:35 PM17.6 °F10.4 °F73 %29.60 in0.5 miWSW (250°)20.7 mph36.8 mphOvercast
4:55 PM17.6 °F12.2 °F79 %29.61 in0.8 miWSW (250°)11.5 mph23.0 mphOvercast
5:15 PM17.6 °F12.2 °F79 %29.62 in0.5 miWSW (240°)13.8 mphOvercast
5:35 PM17.6 °F12.2 °F79 %29.63 in0.8 miWSW (250°)20.7 mph25.3 mphOvercast
5:55 PM17.6 °F12.2 °F79 %29.64 in0.8 miWSW (250°)12.7 mphOvercast
6:15 PM17.6 °F12.2 °F79 %29.64 in1.2 miWSW (250°)15.0 mph24.2 mphOvercast
6:35 PM17.6 °F14.0 °F86 %29.65 in2.5 miWest (260°)21.9 mph25.3 mphOvercast
6:55 PM17.6 °F14.0 °F86 %29.65 in1.0 miWSW (240°)15.0 mphOvercast
7:15 PM17.6 °F14.0 °F86 %29.66 in1.5 miWSW (250°)17.3 mph20.7 mphOvercast
7:35 PM17.6 °F14.0 °F86 %29.66 in2.0 miWest (260°)15.0 mph21.9 mphOvercast
8:15 PM17.6 °F12.2 °F79 %29.66 in1.8 miWSW (250°)13.8 mph18.4 mphOvercast
8:35 PM17.6 °F14.0 °F86 %29.67 in2.0 miWSW (250°)11.5 mphOvercast
8:55 PM17.6 °F14.0 °F86 %29.67 in2.0 miWSW (250°)16.1 mph20.7 mphOvercast
9:15 PM17.6 °F14.0 °F86 %29.67 in2.0 miWSW (250°)16.1 mph20.7 mphOvercast
9:35 PM17.6 °F12.2 °F79 %29.67 in3.0 miWest (260°)12.7 mphOvercast
10:15 PM17.6 °F12.2 °F79 %29.69 in0.5 miWest (260°)15.0 mphOvercast
10:35 PM17.6 °F14.0 °F86 %29.69 in1.2 miWest (260°)12.7 mphOvercast
10:55 PM17.6 °F12.2 °F79 %29.69 in2.5 miWest (260°)16.1 mph28.8 mphOvercast
11:15 PM15.8 °F12.2 °F86 %29.69 in3.0 miWSW (250°)17.3 mph25.3 mphOvercast
11:35 PM15.8 °F10.4 °F79 %29.69 in2.5 miWest (260°)16.1 mph21.9 mphMostly Cloudy
Hourly data recorded from KJHW, located miles away from Pittsfield, Pennsylvania







STORIES FROM OUR PARTNERS